{"data":{"norad_id":60270,"intl_designator":"2024-131R","name":"STARLINK-32211","alt_names":[],"object_type":"PAYLOAD","status":"ACTIVE","operator":null,"country":"US","launch_date":"2024-07-27","launch_site_code":"AFETR","launch_vehicle":null,"mission":null,"orbit_class":"UNKNOWN","rcs_meters":null,"size_class":null,"mass_kg":null,"dimensions":null,"purposes":["comms"],"wikipedia_slug":null,"has_3d_model":false,"image_url":null,"decayed_at":null,"tle_current":{"epoch":"2026-09-21T06:29:28.803264Z","epoch_age_seconds":115280,"freshness":"FRESH","line1":"1 60270U 24131R   26264.27047226 -.00001304  00000+0 -27482-4 0  9992","line2":"2 60270  53.1567 221.8165 0001624  74.9700 285.1482 15.34386907121694","mean_motion":15.34386907,"eccentricity":0.0001624,"inclination_deg":53.1567,"raan_deg":221.8165,"arg_perigee_deg":74.97,"mean_anomaly_deg":285.1482,"bstar":-2.7482e-5,"rev_number":12169,"period_min":93.848558888935,"perigee_km":461.63119686417,"apogee_km":463.85311441393,"semimajor_km":6840.8791556391,"source":"CELESTRAK","updated_at":"2026-09-22T09:00:49.189337Z"}}}